FW1555 Weather Reports


Display with metric or nautical units.
time (UTC)temp
F
wind
direction
speed
MPH
gust
MPH
rain 1hr
in
rain 24hr
in
rain mn
in
humidity
%
barometer
mb
20260831094605 66 0 0.0 0.0 0.00 0.06 0.00 96 1019.1
20260831093101 66 0 0.0 0.0 0.00 0.06 0.00 96 1019.1
20260831091603 66 0 0.0 0.0 0.00 0.06 0.00 96 1018.9
20260831090051 66 0 0.0 0.0 0.00 0.06 0.00 96 1018.9
20260831084554 67 0 0.0 0.0 0.00 0.06 0.00 96 1018.7
20260831083101 67 0 0.0 0.0 0.00 0.06 0.00 95 1018.9
20260831081601 67 0 0.0 0.0 0.00 0.06 0.00 96 1018.6
20260831080132 67 0 0.0 0.0 0.00 0.06 0.00 96 1018.7
20260831074606 67 0 0.0 0.0 0.00 0.06 0.00 97 1018.7
20260831073117 67 0 0.0 0.0 0.00 0.06 0.00 97 1018.7
20260831071556 67 0 0.0 0.0 0.00 0.06 0.00 97 1018.8
20260831070052 67 0 0.0 0.0 0.00 0.06 0.00 97 1018.8
20260831064556 67 0 0.0 0.0 0.00 0.06 0.00 97 1018.9
20260831063052 67 0 0.0 0.0 0.00 0.06 0.00 97 1018.7
20260831061602 67 0 0.0 2.0 0.00 0.06 0.00 98 1018.6
20260831060054 67 0 0.0 0.0 0.00 0.06 0.00 98 1018.7
20260831054600 68 0 0.0 0.0 0.00 0.06 0.00 99 1018.6
20260831053056 68 0 0.0 0.0 0.00 0.06 0.00 99 1018.6
20260831051602 68 0 0.0 0.0 0.00 0.06 0.00 99 1018.6
20260831044558 68 0 0.0 0.0 0.00 0.06 0.00 98 1018.7
20260831043103 69 0 0.0 0.0 0.00 0.06 0.00 98 1018.6
20260831041559 69 0 0.0 0.0 0.00 0.06 0.00 98 1018.4
20260831034609 70 0 0.0 0.0 0.00 0.06 0.06 98 1018.4
20260831033051 70 0 0.0 0.0 0.00 0.06 0.06 98 1018.4
20260831031558 70 0 0.0 0.0 0.00 0.06 0.06 98 1018.5
20260831030100 71 0 0.0 0.0 0.00 0.06 0.06 99 1018.9
20260831024608 72 0 0.0 0.0 0.00 0.06 0.06 98 1018.8
20260831023107 72 0 0.0 0.0 0.00 0.06 0.06 98 1018.8
20260831021600 72 0 0.0 0.0 0.02 0.06 0.06 98 1018.9
20260831020053 72 0 0.0 0.0 0.03 0.06 0.06 98 1018.9
20260831014550 72 0 0.0 0.0 0.03 0.06 0.06 97 1018.8
20260831013106 72 0 0.0 0.0 0.04 0.06 0.06 97 1018.8
20260831011553 72 0 0.0 0.0 0.03 0.04 0.04 96 1018.8
20260831010119 72 0 0.0 0.0 0.02 0.03 0.03 95 1018.6
20260831004558 73 0 0.0 0.0 0.03 0.03 0.03 95 1018.4
20260831003106 73 0 0.0 0.0 0.02 0.02 0.02 93 1018.3
20260831001551 74 0 0.0 0.0 0.01 0.01 0.01 91 1018.2
20260831000100 75 0 0.0 0.0 0.00 0.00 0.00 89 1018.0
20260830234554 76 0 0.0 0.0 0.00 0.00 0.00 86 1017.8
20260830233049 77 0 0.0 0.0 0.00 0.00 0.00 85 1017.6
20260830231601 77 247 0.0 4.0 0.00 0.00 0.00 84 1017.5
20260830230059 77 0 0.0 0.0 0.00 0.00 0.00 84 1017.4
20260830224554 77 0 0.0 1.0 0.00 0.00 0.00 84 1017.5
20260830223104 77 0 0.0 3.0 0.00 0.00 0.00 83 1017.4
20260830221600 77 0 0.0 1.0 0.00 0.00 0.00 83 1017.5
20260830220054 77 0 0.0 5.0 0.00 0.00 0.00 83 1017.5
20260830214548 77 0 0.0 8.0 0.00 0.00 0.00 82 1017.7
20260830213052 78 0 1.0 5.0 0.00 0.00 0.00 82 1017.5
20260830211552 78 261 0.0 7.0 0.00 0.00 0.00 82 1017.5
20260830210103 78 0 0.0 9.0 0.00 0.00 0.00 82 1017.5
20260830204603 78 0 0.0 7.0 0.00 0.00 0.00 82 1017.8
20260830203055 77 240 4.0 12.0 0.00 0.00 0.00 82 1017.9
20260830201553 77 0 2.0 9.0 0.00 0.00 0.00 83 1017.9
20260830200051 76 244 5.0 12.0 0.00 0.00 0.00 83 1018.2
20260830194606 76 0 2.0 10.0 0.00 0.00 0.00 84 1018.3
20260830193053 75 257 1.0 9.0 0.00 0.00 0.00 84 1018.4
20260830191550 75 0 3.0 13.0 0.00 0.00 0.00 84 1018.6
20260830184557 76 246 2.0 14.0 0.00 0.00 0.00 82 1019.1
20260830183053 76 232 1.0 14.0 0.00 0.00 0.00 82 1019.3
20260830181550 76 252 2.0 12.0 0.00 0.00 0.00 81 1019.4
20260830180100 75 0 3.0 10.0 0.00 0.00 0.00 80 1019.5
20260830174612 75 225 0.0 9.0 0.00 0.00 0.00 79 1019.7
20260830173049 75 251 1.0 9.0 0.00 0.00 0.00 77 1019.8
20260830171605 75 253 1.0 14.0 0.00 0.00 0.00 75 1020.0
20260830170056 77 225 5.0 14.0 0.00 0.00 0.00 71 1020.1
20260830164551 77 257 1.0 11.0 0.00 0.00 0.00 70 1020.0
20260830163100 77 261 3.0 9.0 0.00 0.00 0.00 68 1019.9
20260830161610 76 0 2.0 8.0 0.00 0.00 0.00 69 1020.3
20260830160055 76 241 1.0 10.0 0.00 0.00 0.00 67 1020.7
20260830154559 76 235 1.0 9.0 0.00 0.00 0.00 64 1020.8
20260830153103 77 254 0.0 8.0 0.00 0.00 0.00 63 1020.7
20260830151558 77 229 1.0 9.0 0.00 0.00 0.00 62 1020.9
20260830150053 75 0 1.0 7.0 0.00 0.00 0.00 67 1021.1
20260830144601 74 258 1.0 5.0 0.00 0.00 0.00 70 1021.4
20260830143055 73 270 1.0 8.0 0.00 0.00 0.00 71 1021.4
20260830141552 72 261 0.0 5.0 0.00 0.00 0.00 73 1021.4
20260830140110 72 0 1.0 8.0 0.00 0.00 0.00 73 1021.4
20260830134549 72 259 1.0 7.0 0.00 0.00 0.00 72 1021.5
20260830133053 71 0 0.0 4.0 0.00 0.00 0.00 72 1021.5
20260830131555 69 0 0.0 4.0 0.00 0.00 0.00 79 1021.7
20260830124558 68 0 0.0 3.0 0.00 0.00 0.00 81 1022.0
20260830123058 66 0 0.0 3.0 0.00 0.00 0.00 85 1021.9
20260830121603 64 0 0.0 0.0 0.00 0.00 0.00 87 1022.0
20260830120056 63 0 0.0 0.0 0.00 0.00 0.00 90 1022.2
20260830114554 62 0 0.0 0.0 0.00 0.00 0.00 92 1022.3
20260830113055 61 0 0.0 0.0 0.00 0.00 0.00 93 1022.2
20260830111554 61 0 0.0 0.0 0.00 0.00 0.00 93 1022.1
20260830110051 60 0 0.0 0.0 0.00 0.00 0.00 93 1022.0
20260830104601 60 0 0.0 0.0 0.00 0.00 0.00 93 1021.9
20260830103052 60 0 0.0 0.0 0.00 0.00 0.00 92 1021.9
20260830101604 61 0 0.0 0.0 0.00 0.00 0.00 92 1022.0
20260830100059 61 0 0.0 0.0 0.00 0.00 0.00 91 1022.1